DW0333 Tranby-Lier NO current weather conditions

sailwx.info

Wind from 193 at 6 knots

Air temperature 15.6° C
Dewpoint 9.0° C

Last reported at 2015-Aug-01 12:48 UTC.
Time now 2015-Aug-01 13:54 UTC

Location: N 59°50' E 010°17'.
View on Google Maps.

See reports from other nearby stations

  
Tides and Currents Weather Stations Pressure Air Temp Water Temp Dewpoint Dewpoint Depression Visibility Wind Speed Wind Dir Waves Ship Positions
date/time (UTC)wind fromknots sea level pressurealtimeterstation pressurevisibilityair tempwater tempwave heightnotes
2015-Aug-01 12:48 193 6 15.6
2015-Aug-01 12:33 207 5 15.0
2015-Aug-01 12:17 200 4 15.0
2015-Aug-01 12:02 153 4 15.6
2015-Aug-01 11:47 142 4 16.1
2015-Aug-01 11:32 148 4 16.1
2015-Aug-01 11:16 173 2 16.1
2015-Aug-01 11:01 161 3 16.1
2015-Aug-01 10:46 140 3 16.7
2015-Aug-01 10:31 144 2 17.2
2015-Aug-01 10:16 151 3 17.2
2015-Aug-01 10:01 200 4 16.1
2015-Aug-01 09:46 176 2 16.1
2015-Aug-01 09:31 177 2 16.7
2015-Aug-01 09:16 177 1 16.1
2015-Aug-01 09:01 279 1 15.6
2015-Aug-01 08:43 260 2 15.0
2015-Aug-01 08:28 298 1 14.4
2015-Aug-01 08:13 292 2 14.4
2015-Aug-01 07:58 286 2 13.9
2015-Aug-01 07:42 282 2 13.9
2015-Aug-01 07:27 300 0 13.9
2015-Aug-01 07:11 065 0 13.3
2015-Aug-01 06:56 285 0 12.8
2015-Aug-01 06:41 005 12.2
2015-Aug-01 06:25 318 0 11.7
2015-Aug-01 06:10 011 0 11.1
2015-Aug-01 05:55 360 0 10.0
2015-Aug-01 05:40 012 0 9.4
2015-Aug-01 05:25 310 0 8.9
2015-Aug-01 05:10 316 1 8.9
2015-Aug-01 04:53 330 1 8.9
2015-Aug-01 04:38 327 1 8.9
2015-Aug-01 04:23 342 1 8.9
2015-Aug-01 04:08 031 2 8.9
2015-Aug-01 03:53 321 1 8.9
2015-Aug-01 03:37 338 3 8.9
2015-Aug-01 03:22 303 2 8.9
2015-Aug-01 03:07 288 2 8.9
2015-Aug-01 02:52 318 2 8.9
2015-Aug-01 02:36 290 2 8.9
2015-Aug-01 02:21 312 3 8.9
2015-Aug-01 02:06 310 2 8.9
2015-Aug-01 01:50 352 1 8.9
2015-Aug-01 01:35 275 0 8.9
2015-Aug-01 01:20 132 0 9.4
2015-Aug-01 01:05 129 0 9.4
2015-Aug-01 00:50 032 0 9.4
2015-Aug-01 00:35 139 0 9.4
2015-Aug-01 00:20 128 0 9.4
2015-Aug-01 00:03 263 0 10.0
2015-Jul-31 23:48 290 2 10.0
2015-Jul-31 23:33 308 1 10.0
2015-Jul-31 23:17 307 2 10.0
2015-Jul-31 23:02 308 0 10.0
2015-Jul-31 22:47 011 0 10.6
2015-Jul-31 22:32 322 4 10.6
2015-Jul-31 22:16 292 3 11.1
2015-Jul-31 22:01 286 11.1
2015-Jul-31 21:46 155 11.1
2015-Jul-31 21:31 146 11.1
2015-Jul-31 21:16 140 11.7
2015-Jul-31 21:01 140 11.7
2015-Jul-31 20:46 132 11.7
2015-Jul-31 20:31 132 12.2
2015-Jul-31 20:16 147 0 12.2
2015-Jul-31 20:01 158 0 12.8
2015-Jul-31 19:43 167 1 12.8
2015-Jul-31 19:28 153 2 13.3
2015-Jul-31 19:13 185 3 13.3
2015-Jul-31 18:58 185 3 13.9
2015-Jul-31 18:42 154 3 14.4
2015-Jul-31 18:27 146 3 15.0
2015-Jul-31 18:12 131 0 15.6
2015-Jul-31 17:56 120 1 16.1
2015-Jul-31 17:41 139 3 16.7
2015-Jul-31 17:26 196 2 17.2
2015-Jul-31 17:10 217 1 17.2
2015-Jul-31 16:55 183 1 17.8
2015-Jul-31 16:40 267 18.3
2015-Jul-31 16:25 094 0 18.3
2015-Jul-31 16:10 068 0 18.9
2015-Jul-31 15:55 075 0 18.9
2015-Jul-31 15:40 109 0 18.9
2015-Jul-31 15:25 068 0 18.3
2015-Jul-31 15:08 230 0 19.4
2015-Jul-31 14:53 281 1 18.9
2015-Jul-31 14:38 226 2 18.3
2015-Jul-31 14:23 179 1 18.9
2015-Jul-31 14:07 252 2 18.9
2015-Jul-31 13:52 055 1 18.9
2015-Jul-31 13:37 279 2 18.3
2015-Jul-31 13:21 257 1 17.8
2015-Jul-31 13:06 048 1 17.2
2015-Jul-31 12:51 322 1 16.7
2015-Jul-31 12:35 286 4 17.2
2015-Jul-31 12:20 040 1 16.7
2015-Jul-31 12:05 250 1 16.1
2015-Jul-31 11:50 249 0 16.1
2015-Jul-31 11:35 304 1 16.7
2015-Jul-31 11:20 023 1 16.1
2015-Jul-31 11:05 323 1 15.6
2015-Jul-31 10:48 308 1 15.6
2015-Jul-31 10:33 319 1 15.0
2015-Jul-31 10:18 329 1 14.4
2015-Jul-31 10:03 252 1 14.4
2015-Jul-31 09:47 042 0 13.3
2015-Jul-31 09:32 344 0 12.2
2015-Jul-31 09:16 065 1 11.7
2015-Jul-31 09:02 310 1 11.7
2015-Jul-31 08:46 290 1 11.7
2015-Jul-31 08:16 038 0 11.1
2015-Jul-31 08:01 328 1 10.6
2015-Jul-31 07:46 337 1 10.6
2015-Jul-31 07:31 331 0 10.0
2015-Jul-31 07:16 335 1 10.0
2015-Jul-31 07:01 280 1 10.6
2015-Jul-31 06:46 285 1 10.6
2015-Jul-31 06:28 346 2 10.6
2015-Jul-31 06:13 325 1 10.6
2015-Jul-31 05:58 013 1 11.1
2015-Jul-31 05:42 030 1 10.6
2015-Jul-31 05:27 318 2 10.6
2015-Jul-31 05:12 346 0 11.1
2015-Jul-31 04:56 330 0 11.1
2015-Jul-31 04:41 353 1 11.1
2015-Jul-31 04:26 340 1 10.6
2015-Jul-31 04:11 336 0 10.6
2015-Jul-31 03:55 315 0 10.6
2015-Jul-31 03:40 327 1 10.6
2015-Jul-31 03:25 301 2 11.1
2015-Jul-31 03:10 009 1 11.1
2015-Jul-31 02:55 321 1 11.1
2015-Jul-31 02:40 360 2 11.1
2015-Jul-31 02:23 319 1 11.1
2015-Jul-31 02:08 341 1 11.7
2015-Jul-31 01:53 315 1 11.7
2015-Jul-31 01:38 329 1 11.7
2015-Jul-31 01:23 344 1 11.7
2015-Jul-31 01:07 029 1 11.7
2015-Jul-31 00:52 332 1 12.2
2015-Jul-31 00:37 340 2 12.2
2015-Jul-31 00:21 308 3 12.2
2015-Jul-31 00:06 311 2 12.2
2015-Jul-30 23:51 326 1 12.2
2015-Jul-30 23:35 335 1 12.2
2015-Jul-30 23:20 327 2 12.8
2015-Jul-30 23:05 290 1 12.8
2015-Jul-30 22:50 318 0 12.8
2015-Jul-30 22:35 326 1 12.8
2015-Jul-30 22:20 308 1 12.8
2015-Jul-30 22:05 313 0 12.8
2015-Jul-30 21:48 341 12.8
2015-Jul-30 21:33 341 12.8
2015-Jul-30 21:18 322 2 12.8
2015-Jul-30 21:02 298 3 12.8
2015-Jul-30 20:47 298 2 13.3
2015-Jul-30 20:32 308 1 13.3
2015-Jul-30 20:17 319 0 13.9
2015-Jul-30 20:01 325 1 14.4
2015-Jul-30 19:46 296 2 14.4
2015-Jul-30 19:31 272 2 14.4
2015-Jul-30 19:16 298 15.0
2015-Jul-30 19:01 314 15.0
2015-Jul-30 18:46 300 15.6
2015-Jul-30 18:31 312 15.6
2015-Jul-30 18:16 328 1 15.6
2015-Jul-30 18:01 279 2 16.1
2015-Jul-30 17:46 291 1 16.7
2015-Jul-30 17:28 286 2 17.2
2015-Jul-30 17:13 296 1 17.2
2015-Jul-30 16:58 280 1 17.8
2015-Jul-30 16:43 284 1 17.8
2015-Jul-30 16:28 297 1 18.3
2015-Jul-30 16:12 298 1 18.9
2015-Jul-30 15:57 302 1 18.9
2015-Jul-30 15:42 287 2 18.3
2015-Jul-30 15:26 311 3 17.2
2015-Jul-30 15:11 338 0 16.7
2015-Jul-30 14:56 315 1 16.1
2015-Jul-30 14:40 292 2 16.7
2015-Jul-30 14:25 280 2 17.8
2015-Jul-30 14:10 299 0 18.9
2015-Jul-30 13:55 034 0 20.0
2015-Jul-30 13:40 340 2 20.6
2015-Jul-30 13:25 286 3 20.6
2015-Jul-30 13:10 290 4 20.6